Regional Weather Roundup
Issued by NWS

Home | Current Version | Previous Version | Graphics & Text | Print | Product List | Glossary Off
Versions: 1 2 3 4 5 6 7 8 9 10 11 12 13 14 15 16 17 18 19 20 21 22 23 24 25 26 27 28 29 30 31 32 33 34 35 36 37 38 39 40 41 42 43 44 45 46 47 48 49 50

000
ASUS43 KMKX 071910
RWRWI

WISCONSIN REGIONAL WEATHER ROUNDUP
NATIONAL WEATHER SERVICE MILWAUKEE/SULLIVAN WI
100 PM CST SUN FEB 07 2016

NOTE: "FAIR" INDICATES FEW OR NO CLOUDS BELOW 12,000 FEET WITH NO
SIGNIFICANT WEATHER AND/OR OBSTRUCTIONS TO VISIBILITY.

WIZ001-002-006>008-014>016-023>028-072000-
NORTHWEST WISCONSIN

CITY           SKY/WX    TMP DP  RH WIND       PRES   REMARKS
SUPERIOR ARPT  CLOUDY    37  32  82 W14G20    29.48S WCI  28
ASHLAND        CLOUDY    37  33  85 SW13G20   29.48S WCI  29
HAYWARD        FLURRIES  36  29  75 W12       29.50F WCI  28
SIREN          CLOUDY    36  31  81 W7        29.54F WCI  31
CUMBERLAND     CLOUDY    36  27  69 W20G28    29.54S WCI  25
RICE LAKE      CLOUDY    38  27  65 W13G21    29.56F WCI  30
CHETEK         CLOUDY    38  28  65 W10G22    29.55F WCI  32
LADYSMITH      CLOUDY    37  30  73 W13       29.55S WCI  29
EAU CLAIRE     CLOUDY    39  26  59 W15       29.58F WCI  31
MENOMONIE      CLOUDY    42  26  53 W15G25    29.59S
NEW RICHMOND   CLOUDY    40  26  57 W20G26    29.58S WCI  30
OSCEOLA        CLOUDY    40  28  62 W15       29.60F WCI  31
$$

WIZ003>005-009-010-017-018-072000-
NORTH CENTRAL WISCONSIN

CITY           SKY/WX    TMP DP  RH WIND       PRES   REMARKS
MANITOWISH WTR CLOUDY    32  32  99 SW7       29.47S WCI  26
ARBOR VITAE    CLOUDY    34  32  91 SW7       29.48F WCI  28
WOODRUFF       CLOUDY    34  32  91 SW7       29.48F WCI  28
RHINELANDER    CLOUDY    32  29  88 SW9       29.51F WCI  24
EAGLE RIVER    MIX PCPN  32  31  98 SW9       29.48F WCI  24
LAND O LAKES   MIX PCPN  33  32  97 SW6       29.48F WCI  27
PHILLIPS       CLOUDY    33  32  96 SW8       29.50S FOG     WCI  26
TOMAHAWK       CLOUDY    33  30  86 W7        29.52S WCI  27
MEDFORD        CLOUDY    36  29  78 SW9G18    29.53F WCI  29
MERRILL        CLOUDY    36  30  79 W12       29.54F WCI  28
$$

WIZ029-030-035-036-043>047-072000-
CENTRAL WISCONSIN

CITY           SKY/WX    TMP DP  RH WIND       PRES   REMARKS
WAUSAU         CLOUDY    38  29  70 W13       29.53F WCI  30
MOSINEE        CLOUDY    36  30  80 W15       29.57F WCI  26
MARSHFIELD     CLOUDY    39  26  59 W13       29.56F WCI  31
STEVENS POINT  CLOUDY    36  28  71 W12G21    29.58F WCI  28
WAUPACA        CLOUDY    41  30  64 W15       29.59F
WAUTOMA        CLOUDY    42  29  60 W13       29.60F
WISC RAPIDS    CLOUDY    40  27  59 W10       29.60F WCI  33
CAMP DOUGLAS   MOSUNNY   41  32  70 W16       29.61F
$$

WIZ011>013-019>022-031-037>040-048>050-072000-
NORTHEAST WISCONSIN

CITY           SKY/WX    TMP DP  RH WIND       PRES   REMARKS
ANTIGO         CLOUDY    34  30  85 W12G21    29.53F WCI  25
SHAWANO        CLOUDY    42  31  65 W7G17     29.57F
OCONTO         CLOUDY    40  31  69 W7        29.56F
STURGEON BAY   MOSUNNY   39  28  65 W14       29.60S WCI  31
GREEN BAY      CLOUDY    40  31  70 S9        29.58F WCI  34
MANITOWOC      SUNNY     41  30  65 SW15G21   29.60F
APPLETON       PTSUNNY   39  28  65 SW10      29.57  WCI  32
CLINTONVILLE   CLOUDY    37  30  75 SW10      29.58S WCI  30
OSHKOSH        MOSUNNY   40  30  67 SW9       29.60F WCI  34
$$

WIZ032>034-041-042-053>061-072000-
SOUTHWEST WISCONSIN

CITY           SKY/WX    TMP DP  RH WIND       PRES   REMARKS
LA CROSSE      SUNNY     41  25  53 W18G28    29.65F
SPARTA         SUNNY     42  28  56 W15G23    29.64F
VIROQUA        SUNNY     38  27  63 W18G24    29.65F WCI  29
BOSCOBEL       SUNNY     41  26  55 W14G23    29.70F
PRAIRIE DU CHI MOSUNNY   39  25  56 W12G17    29.72S WCI  32
PLATTEVILLE    SUNNY     39  28  64 W21G26    29.71S WCI  29
$$

WIZ056-057-062-063-064-067-068-072000-
SOUTH CENTRAL WISCONSIN

CITY           SKY/WX    TMP DP  RH WIND       PRES   REMARKS
REEDSBURG      MOSUNNY   41  28  61 W10       29.64F
BARABOO/DELLS  SUNNY     41  28  59 W13       29.62F
LONE ROCK      SUNNY     41  27  57 W15       29.67F
MINERAL POINT  SUNNY     41  28  60 W14       29.68S
MADISON        MOSUNNY   40  29  64 SW10      29.65F WCI  33
MIDDLETON      SUNNY     43  30  61 SW15      29.65F
WATERTOWN      SUNNY     41  31  68 SW16      29.64F
MONROE         SUNNY     41  30  65 W20G31    29.68F
JANESVILLE     SUNNY     45  32  61 SW13G21   29.68F
$$

WIZ051-052-058>065-066-070>072-072000-
SOUTHEAST WISCONSIN

CITY           SKY/WX    TMP DP  RH WIND       PRES   REMARKS
MILWAUKEE      PTSUNNY   43  30  60 SW18      29.66F
WAUKESHA       SUNNY     39  30  70 SW13G21   29.66F WCI  32
MILWAUKEE/TIMM SUNNY     43  28  56 SW12G18   29.65F
RACINE         PTSUNNY   42  30  62 SW14      29.68F
BURLINGTON     CLOUDY    39  30  70 SW15      29.68F WCI  31
KENOSHA        PTSUNNY   41  31  67 SW17      29.68F
FOND DU LAC    SUNNY     40  30  67 SW12      29.61F WCI  33
SHEBOYGAN      SUNNY     40  31  70 SW12      29.61F WCI  33
WEST BEND      SUNNY     41  30  65 SW13      29.63S
JUNEAU         SUNNY     39  30  71 SW15      29.64F WCI  30
$$

LSZ147-162-072000-
LAKE SUPERIOR

STATION/POSITION TIME  TEMP    WIND        PRES    WAVE
                       AIR SEA DIR/SP/G            HT/PER
                 (UTC) (F)     (DEG/KT/KT) (MB)    (FT/S)
DEVILS ISLAND    1800   33     220/  9/ 11  998.1F
PORT WING        1800   37     230/  8/ 12  998.6R
SAXON HARBOR     1800   38                  998.3F
$$

LMZ867-665-643>646-072000-
LAKE MICHIGAN

STATION/POSITION TIME  TEMP    WIND        PRES    WAVE
                       AIR SEA DIR/SP/G            HT/PER
                 (UTC) (F)     (DEG/KT/KT) (MB)    (FT/S)
CHAMBERS ISLAND  1800   38     180/  9/ 16 1001.7F
NORTHPORT PIER   1800   40     190/  3/ 11 1002.0F
ALGOMA LAKESHORE 1811          230/ 13/ 18   N/A
KEWAUNEE LAKESHO 1800   40     250/ 11/ 15 1001.9F
SHEBOYGAN LAKESH 1900   42     240/ 12/ 16 1003.4F
PORT WASHINGTON  1800   43     250/ 11/ 19 1005.1
MILWAUKEE LAKESH 1810   42     240/ 12/ 15   N/A
KENOSHA   LAKESH 1900   40     230/ 16/ 22 1005.4F
$$

TC  - TEMPERATURE IN CELSIUS
VSB - VISIBILITY IN STATUTE MILES
WCI - WIND CHILL INDEX
HX  - HEAT INDEX




USA.gov is the U.S. government's official web portal to all federal, state and local government web resources and services.